Regional Weather Roundup
Issued by NWS

Home | Current Version | Previous Version | Graphics & Text | Print | Product List | Glossary On
Versions: 1 2 3 4 5 6 7 8 9 10 11 12 13 14 15 16 17 18 19 20 21 22 23 24 25 26 27 28 29 30 31 32 33 34 35 36 37 38 39 40 41 42 43 44 45 46 47 48 49 50
000
ASUS43 KFSD 261302
RWRSD

WEATHER ROUNDUP FOR SOUTH DAKOTA
NATIONAL WEATHER SERVICE SIOUX FALLS SD
800 AM CDT SAT MAY 26 2018

NOTE: "FAIR" INDICATES FEW OR NO CLOUDS BELOW 12,000 FEET WITH NO
SIGNIFICANT WEATHER AND/OR OBSTRUCTIONS TO VISIBILITY.


SDZ001>005-009-010-012>017-261400-
NORTHWEST AND NORTH CENTRAL SOUTH DAKOTA

CITY           SKY/WX    TMP DP  RH WIND       PRES   REMARKS
BUFFALO          N/A     62  52  69 NE7       29.77F
FAITH            N/A     67  59  75 CALM      29.84R
MOBRIDGE       SUNNY     64  57  78 CALM      29.78R
$$

SDZ012>016-024>037-041>051-057-063-072>074-261400-
SOUTHWEST AND SOUTH CENTRAL SOUTH DAKOTA

CITY           SKY/WX    TMP DP  RH WIND       PRES   REMARKS
RAPID CTY ARPT SUNNY     65  57  75 CALM      29.86S
PIERRE         SUNNY     68  61  78 SW3       29.80R
CUSTER         SUNNY     58  50  75 CALM      30.00R
ELLSWORTH AFB  SUNNY     63  57  80 CALM      29.85F
PHILIP         SUNNY     64  60  87 CALM      29.83S
PINE RIDGE     SUNNY     62  56  80 NW5       29.88S
SPEARFISH      FAIR      61  52  72 CALM      29.88F
WINNER         FAIR      72  61  68 CALM      29.84R
$$

SDZ004>011-016>023-039-040-261400-
NORTHEAST SOUTH DAKOTA

CITY           SKY/WX    TMP DP  RH WIND       PRES   REMARKS
ABERDEEN       SUNNY     68  56  65 CALM      29.77R
WATERTOWN      SUNNY     67  58  72 CALM      29.77R
BROOKINGS      SUNNY     69  59  70 CALM      29.79R
SISSETON         N/A     79  57  46 W5        29.72R
$$

SDZ017-020-022-023-036>040-048>070-261400-
SOUTHEAST SOUTH DAKOTA

CITY           SKY/WX    TMP DP  RH WIND       PRES   REMARKS
SIOUX FALLS    SUNNY     71  61  70 CALM      29.79R
HURON          SUNNY     70  57  63 CALM      29.79R
CHAMBERLAIN    SUNNY     70  67  91 W3        29.83R
MITCHELL       SUNNY     71  60  68 W3        29.80R
YANKTON        SUNNY     69  63  81 CALM      29.80R
$$

ABBREVIATIONS USED IN REMARKS
   TC - TEMPERATURE IN CELSIUS
  WCI - WIND CHILL INDEX
   HX - HEAT INDEX
  VSB - VISIBILITY





USA.gov is the U.S. government's official web portal to all federal, state and local government web resources and services.